Weather History for Cincinnati, OH

Change the Weather History Date:

Saturday, February 16, 2013

  Actual Average Record
Temperature  
Mean Temperature 24 °F -  
Max Temperature 30 °F 42 °F 68 °F (2011)
Min Temperature 17 °F 25 °F 1 °F (1991)
Degree Days  
Heating Degree Days 42    
Moisture  
Dew Point 15 °F    
Average Humidity 68    
Maximum Humidity 96    
Minimum Humidity 45    
Precipitation  
Precipitation 0.00 in - - ()
Sea Level Pressure  
Sea Level Pressure 30.13 in    
Wind  
Wind Speed 4 mph (WNW)    
Max Wind Speed 18 mph    
Max Gust Speed 23 mph    
Visibility 9 miles    
Events Snow    
Averages and records for this station are not official NWS values.
T = Trace of Precipitation, MM = Missing Value Source: NWS Daily Summary

Daily Weather History Graph

Daily Weather History Graph

Search for Another Location

Airport:

Trip Planner

Search our weather history database for the weather conditions in past years. The results will help you decide how hot, cold, wet, or windy it might be!

Date:

Astronomy

Feb. 16, 2013 Rise Set
Actual Time 7:27 AM EST 6:16 PM EST
Civil Twilight 7:00 AM EST 6:43 PM EST
Nautical Twilight 6:29 AM EST 7:14 PM EST
Astronomical Twilight 5:58 AM EST 7:45 PM EST
Moon 10:43 AM EST 12:12 AM EST
Length of Visible Light 11h 43m
Length of Day
10h 48m
Waxing Crescent, 39% of the Moon is Illuminated
Feb 16
Waxing Crescent
Feb 17
First Quarter
Feb 25
Full
Mar 4
Last Quarter
Mar 11
New

Hourly Weather History & Observations

Time (EST) Temp. Windchill Dew Point Humidity Pressure Visibility Wind Dir Wind Speed Gust Speed Precip Events Conditions
12:53 AM 26.1 °F - 19.0 °F 75% 30.19 in 10.0 mi Calm Calm - N/A   Clear
1:53 AM 24.1 °F - 19.0 °F 81% 30.17 in 10.0 mi Calm Calm - N/A   Clear
2:53 AM 24.1 °F - 19.0 °F 81% 30.16 in 10.0 mi Calm Calm - N/A   Clear
3:53 AM 21.9 °F - 19.9 °F 92% 30.14 in 8.0 mi Calm Calm - N/A   Clear
4:53 AM 19.9 °F - 19.0 °F 96% 30.14 in 5.0 mi Calm Calm - N/A   Clear
5:53 AM 19.9 °F - 19.0 °F 96% 30.13 in 5.0 mi Calm Calm - N/A   Clear
6:53 AM 17.6 °F - 15.8 °F 93% 30.11 in 5.0 mi Calm Calm - N/A   Clear
7:53 AM 19.0 °F - 17.1 °F 92% 30.13 in 7.0 mi Calm Calm - N/A   Clear
8:53 AM 24.1 °F - 21.9 °F 91% 30.13 in 7.0 mi Calm Calm - N/A   Partly Cloudy
9:53 AM 28.9 °F 21.1 °F 21.0 °F 72% 30.12 in 10.0 mi West 8.1 mph - N/A   Clear
10:53 AM 28.9 °F 20.4 °F 19.0 °F 67% 30.12 in 10.0 mi West 9.2 mph - N/A   Partly Cloudy
11:19 AM 28.4 °F 20.4 °F 17.6 °F 64% 30.10 in 10.0 mi West 8.1 mph - N/A   Overcast
11:53 AM 28.9 °F 19.8 °F 18.0 °F 64% 30.12 in 10.0 mi West 10.4 mph - N/A   Overcast
12:02 PM 28.4 °F 18.0 °F 19.4 °F 69% 30.10 in 6.0 mi NW 12.7 mph - 0.00 in Snow Light Snow
12:53 PM 30.0 °F 21.7 °F 14.0 °F 51% 30.10 in 10.0 mi West 9.2 mph - 0.00 in   Overcast
1:53 PM 28.9 °F 19.2 °F 12.9 °F 51% 30.09 in 10.0 mi West 11.5 mph - 0.00 in   Overcast
2:53 PM 30.0 °F 17.9 °F 12.9 °F 49% 30.09 in 10.0 mi West 18.4 mph - N/A   Overcast
3:53 PM 30.0 °F 18.7 °F 10.9 °F 45% 30.09 in 10.0 mi West 16.1 mph 23.0 mph N/A   Overcast
4:53 PM 28.0 °F 18.1 °F 12.0 °F 51% 30.11 in 10.0 mi WNW 11.5 mph - N/A   Overcast
5:53 PM 25.0 °F 16.3 °F 12.9 °F 60% 30.12 in 10.0 mi NNW 8.1 mph 18.4 mph N/A   Overcast
6:53 PM 25.0 °F 14.2 °F 10.9 °F 55% 30.14 in 10.0 mi NW 11.5 mph 23.0 mph 0.00 in   Overcast
7:38 PM 24.8 °F 15.3 °F 12.2 °F 59% 30.13 in 5.0 mi NNW 9.2 mph - 0.00 in Snow Light Snow
7:53 PM 24.1 °F 14.4 °F 10.0 °F 55% 30.16 in 10.0 mi NNW 9.2 mph 17.3 mph 0.00 in   Overcast
8:53 PM 23.0 °F 12.4 °F 10.9 °F 60% 30.16 in 10.0 mi North 10.4 mph - N/A   Overcast
9:53 PM 21.9 °F 11.7 °F 10.0 °F 60% 30.17 in 10.0 mi NNW 9.2 mph - 0.00 in   Overcast
10:53 PM 21.0 °F 16.2 °F 8.1 °F 57% 30.17 in 10.0 mi NW 3.5 mph - N/A   Mostly Cloudy
11:53 PM 21.0 °F 14.6 °F 8.1 °F 57% 30.17 in 10.0 mi Variable 4.6 mph - N/A   Overcast